Simultaneous Nadir Overpasses (SNOs) Predictions

Prediction of SNOs between GOES-15 and TERRA Satellite Orbit:

Table of predicted SNOs for the next 14.0 days since TLE Epoch: 3/30/2013
Index Date Time (GOES-15) GOES-15 Lat,Lon TERRA Lat,Lon Distance(km) Time Diff (sec)
1 03/31/2013 07:40:39 -0.01,-135.07 -0.60,-137.90 321.05 80
2 04/02/2013 07:31:08 -0.01,-135.00 -0.01,-134.94 7.21 80
3 04/04/2013 07:18:58 -0.01,-134.93 0.64,-131.99 334.59 80
4 04/04/2013 19:37:33 0.01,-134.88 0.50,-137.14 257.24 80
5 04/06/2013 19:28:02 0.01,-134.80 -0.10,-134.18 70.34 80
6 04/08/2013 19:15:51 0.01,-134.72 -0.71,-131.22 397.61 80
7 04/09/2013 07:34:36 -0.01,-134.73 -0.35,-136.42 191.88 80
8 04/11/2013 07:25:05 -0.01,-134.64 0.27,-133.46 134.94 80
9 04/11/2013 19:43:40
